QPF
0.00 0.00 0.00 0.00 0.00 0.00 0.00 0.00 0.00 0.00 0.00 0.00 0.00 0.00 0.00 0.00 0.00 0.00 0.00 0.00 0.00 0.00 0.00 0.00 0.00 0.00 0.00 0.00 0.00 0.00 0.02 0.02 0.01 0.00 0.00 0.00 0.00 0.00 0.00 0.00 0.00 0.00 0.00 0.00
0.00 0.00 0.00 0.00 0.00 0.00 0.00 0.00 0.00 0.00 0.00 0.00 0.00 0.00 0.00 0.00 0.00 0.00 0.00 0.00 0.00 0.00 0.00 0.00 0.00 0.00 0.00 0.00 0.00 0.00 0.00 0.00 0.00 0.00 0.00 0.00 0.00 0.00 0.00 0.00 0.00 0.00 0.00 0.00
0.00 0.00 0.00 0.00 0.00 0.00 0.00 0.00 0.00 0.00 0.00 0.00 0.00 0.00 0.00 0.00 0.00 0.00 0.00 0.00 0.00 0.00 0.00 0.00 0.00 0.00 0.00 0.00 0.00 0.00 0.00 0.00 0.00 0.00 0.00 0.00 0.00 0.00 0.00 0.00 0.00 0.00 0.00 0.00
0.00 0.00 0.00 0.00 0.00 0.00 0.00 0.00 0.00 0.00 0.00 0.00 0.00 0.00 0.00 0.00 0.00 0.00 0.00 0.00 0.00 0.00 0.00 0.00 0.00 0.00 0.00 0.00 0.00 0.00 0.00 0.00 0.00 0.00 0.00 0.00 0.00 0.00 0.00 0.00 0.00 0.00 0.00 0.00
0.00 0.00 0.00 0.00 0.00 0.00 0.00 0.00 0.00 0.00 0.00 0.00 0.00 0.00 0.00 0.00 0.00 0.00 0.00 0.00 0.00 0.00 0.00 0.00 0.00 0.00 0.00 0.00 0.00 0.00 0.00 0.00 0.00 0.00 0.00 0.00 0.00 0.00 0.00 0.00 0.00 0.00 0.00 0.00
0.00 0.00 0.00 0.00 0.00 0.00 0.00 0.00 0.00 0.00 0.00 0.00 0.00 0.00 0.00 0.00 0.00 0.00 0.00 0.00 0.00 0.00 0.00 0.00 0.00 0.00 0.00 0.00 0.00 0.00 0.00 0.00 0.00 0.00 0.00 0.00 0.00 0.00 0.00 0.00 0.00 0.00 0.00 0.00
0.00 0.00 0.00 0.00 0.00 0.00 0.00 0.00 0.00 0.01 0.00 0.00 0.01 0.00 0.00 0.00 0.00 0.00 0.00 0.00 0.00 0.00 0.00 0.00 0.00 0.00 0.00 0.00 0.00 0.00 0.00 0.00 0.00 0.00 0.00 0.00 0.00 0.00 0.00 0.00 0.00 0.00 0.00 0.00
0.00 0.00 0.00 0.00 0.00 0.00 0.00 0.00 0.00 0.01 0.01 0.00 0.00 0.00 0.00 0.00 0.00 0.00 0.00 0.00 0.00 0.00 0.00 0.00 0.00 0.00 0.00 0.00 0.00 0.00 0.00 0.00 0.00 0.00 0.00 0.00 0.00 0.00 0.00 0.00 0.00 0.00 0.00 0.00
0.00 0.00 0.00 0.00 0.00 0.00 0.00 0.00 0.00 0.00 0.00 0.00 0.00 0.00 0.00 0.00 0.00 0.00 0.00 0.00 0.00 0.00 0.00 0.00 0.00 0.00 0.00 0.00 0.00 0.00 0.00 0.00 0.00 0.00 0.00 0.00 0.00 0.00 0.00 0.00 0.00 0.00 0.00 0.00
0.00 0.00 0.00 0.00 0.00 0.00 0.00 0.00 0.00 0.00 0.00 0.00 0.00 0.00 0.00 0.00 0.00 0.00 0.00 0.00 0.00 0.00 0.00 0.00 0.00 0.00 0.00 0.00 0.00 0.00 0.00 0.00 0.00 0.00 0.00 0.00 0.00 0.00 0.00 0.00 0.00 0.00 0.00 0.00
0.00 0.00 0.00 0.00 0.00 0.00 0.00 0.00 0.00 0.00 0.00 0.00 0.00 0.00 0.00 0.00 0.00 0.00 0.00 0.00 0.00 0.00 0.00 0.00 0.00 0.00 0.00 0.00 0.00 0.00 0.00 0.00 0.00 0.00 0.00 0.00 0.00 0.00 0.00 0.00 0.00 0.00 0.00 0.00
0.00 0.00 0.00 0.00 0.00 0.00 0.00 0.00 0.00 0.00 0.00 0.00 0.00 0.00 0.00 0.00 0.00 0.00 0.00 0.00 0.00 0.00 0.00 0.00 0.00 0.00 0.00 0.00 0.00 0.00 0.00 0.00 0.00 0.00 0.00 0.00 0.00 0.00 0.00 0.00 0.00 0.00 0.00 0.00
0.00 0.00 0.00 0.00 0.00 0.00 0.00 0.00 0.00 0.00 0.00 0.00 0.00 0.00 0.00 0.00 0.00 0.00 0.00 0.00 0.00 0.00 0.00 0.00 0.00 0.00 0.00 0.00 0.00 0.00 0.00 0.00 0.00 0.00 0.00 0.00 0.00 0.00 0.00 0.00 0.00 0.00 0.00 0.00
0.00 0.00 0.00 0.00 0.00 0.00 0.00 0.00 0.00 0.00 0.00 0.00 0.00 0.00 0.00 0.00 0.00 0.00 0.00 0.00 0.00 0.00 0.00 0.00 0.00 0.00 0.00 0.00 0.00 0.00 0.00 0.00 0.00 0.00 0.00 0.00 0.00 0.00 0.00 0.00 0.00 0.00 0.00 0.00
0.00 0.00 0.00 0.00 0.00 0.00 0.00 0.00 0.00 0.00 0.00 0.00 0.00 0.00 0.00 0.00 0.00 0.00 0.00 0.00 0.00 0.00 0.00 0.00 0.00 0.00 0.00 0.00 0.00 0.00 0.00 0.00 0.00 0.00 0.00 0.00 0.00 0.00 0.00 0.00 0.00 0.00 0.00 0.00
0.00 0.00 0.00 0.00 0.00 0.00 0.00 0.00 0.00 0.00 0.00 0.00 0.00 0.00 0.00 0.00 0.00 0.00 0.00 0.00 0.00 0.00 0.00 0.00 0.00 0.00 0.00 0.00 0.00 0.00 0.00 0.00 0.00 0.00 0.00 0.00 0.00 0.00 0.00 0.00 0.00 0.00 0.00 0.00
0.00 0.00 0.00 0.00 0.00 0.00 0.00 0.00 0.00 0.00 0.00 0.00 0.00 0.00 0.00 0.00 0.00 0.00 0.00 0.00 0.00 0.00 0.00 0.00 0.00 0.00 0.00 0.00 0.00 0.00 0.00 0.00 0.00 0.00 0.00 0.00 0.00 0.00 0.00 0.00 0.00 0.00 0.00 0.00
0.00 0.00 0.00 0.00 0.00 0.00 0.00 0.00 0.00 0.00 0.00 0.00 0.00 0.00 0.00 0.00 0.00 0.00 0.00 0.00 0.00 0.00 0.00 0.00 0.00 0.00 0.00 0.00 0.00 0.00 0.00 0.00 0.00 0.00 0.00 0.00 0.00 0.00 0.00 0.00 0.00 0.00 0.00 0.00
0.00 0.00 0.00 0.00 0.00 0.00 0.00 0.00 0.00 0.00 0.00 0.00 0.00 0.00 0.00 0.00 0.00 0.00 0.00 0.00 0.00 0.00 0.00 0.00 0.00 0.00 0.00 0.00 0.00 0.00 0.00 0.00 0.00 0.00 0.00 0.00 0.00 0.00 0.00 0.00 0.00 0.00 0.00 0.00
0.00 0.00 0.00 0.00 0.00 0.00 0.00 0.00 0.00 0.00 0.00 0.00 0.00 0.00 0.00 0.00 0.00 0.00 0.00 0.00 0.00 0.00 0.00 0.00 0.00 0.00 0.00 0.00 0.00 0.00 0.00 0.00 0.00 0.00 0.00 0.00 0.00 0.01 0.00 0.00 0.00 0.00 0.00 0.00
0.00 0.00 0.00 0.00 0.00 0.00 0.00 0.00 0.00 0.00 0.01 0.00 0.00 0.00 0.00 0.00 0.00 0.00 0.00 0.00 0.00 0.00 0.00 0.00 0.00 0.00 0.00 0.00 0.00 0.00 0.00 0.00 0.00 0.00 0.00 0.01 0.02 0.01 0.00 0.00 0.00 0.00 0.00 0.00
0.00 0.00 0.00 0.00 0.00 0.00 0.00 0.00 0.01 0.00 0.00 0.01 0.00 0.00 0.00 0.00 0.00 0.00 0.00 0.00 0.00 0.00 0.00 0.00 0.00 0.00 0.00 0.00 0.00 0.00 0.00 0.00 0.00 0.00 0.01 0.01 0.01 0.01 0.00 0.00 0.00 0.00 0.00 0.00
0.00 0.00 0.00 0.00 0.00 0.00 0.00 0.00 0.00 0.00 0.01 0.00 0.00 0.00 0.00 0.00 0.00 0.00 0.00 0.00 0.00 0.00 0.00 0.00 0.00 0.00 0.00 0.00 0.00 0.00 0.00 0.00 0.00 0.00 0.01 0.01 0.01 0.00 0.00 0.00 0.00 0.00 0.00 0.00
0.00 0.00 0.00 0.00 0.00 0.00 0.00 0.00 0.00 0.00 0.00 0.00 0.00 0.00 0.00 0.00 0.00 0.00 0.00 0.00 0.00 0.00 0.00 0.00 0.00 0.00 0.00 0.00 0.00 0.00 0.00 0.00 0.00 0.00 0.00 0.00 0.00 0.00 0.00 0.00 0.00 0.00 0.00 0.00
0.00 0.00 0.00 0.00 0.00 0.00 0.00 0.00 0.00 0.00 0.00 0.00 0.00 0.00 0.00 0.00 0.00 0.00 0.00 0.00 0.00 0.00 0.00 0.00 0.00 0.00 0.00 0.00 0.00 0.00 0.00 0.00 0.00 0.00 0.00 0.00 0.00 0.00 0.00 0.00 0.00 0.00 0.00 0.00
0.00 0.00 0.00 0.00 0.00 0.00 0.01 0.00 0.00 0.00 0.00 0.00 0.00 0.00 0.00 0.00 0.00 0.00 0.00 0.00 0.00 0.00 0.00 0.00 0.00 0.00 0.00 0.00 0.00 0.00 0.00 0.00 0.00 0.00 0.00 0.00 0.00 0.00 0.00 0.00 0.00 0.00 0.00 0.00
MSLP
1006.79 1006.51 1006.64 1006.99 1007.37 1007.37 1007.15 1006.73 1006.59 1006.94 1007.94 1008.16 1007.80 1007.30 1007.15 1007.83 1008.26 1008.39 1008.56 1008.91 1009.67 1011.13 1012.31 1013.16 1013.85 1014.42 1015.10 1015.38 1015.86 1016.03 1016.86 1017.35 1017.42 1017.51 1017.88 1018.08 1018.24 1018.15 1018.24 1018.28 1018.49 1018.81 1018.96 1019.31
1006.85 1006.85 1007.75 1007.78 1007.79 1007.93 1007.80 1007.63 1007.50 1007.62 1008.41 1008.88 1007.99 1007.74 1007.95 1008.70 1009.12 1008.94 1009.32 1009.89 1010.89 1012.25 1013.49 1014.44 1015.26 1015.76 1016.31 1016.63 1016.77 1017.01 1017.53 1017.95 1018.19 1018.30 1018.40 1018.58 1018.65 1018.56 1018.49 1018.42 1018.63 1018.78 1019.05 1019.40
1007.58 1008.21 1008.34 1008.32 1008.33 1008.54 1008.07 1008.55 1008.93 1009.19 1009.00 1008.71 1008.55 1008.18 1008.51 1009.61 1010.02 1010.01 1010.38 1011.05 1011.92 1013.08 1014.14 1015.08 1016.03 1016.92 1017.27 1017.36 1017.52 1017.83 1018.18 1018.57 1018.93 1018.93 1018.70 1018.80 1018.79 1018.58 1018.57 1018.68 1018.70 1018.73 1019.13 1019.43
1008.08 1008.96 1008.89 1008.92 1008.99 1009.64 1009.28 1009.93 1010.12 1009.94 1009.55 1008.49 1008.39 1008.24 1008.55 1009.90 1010.69 1011.09 1011.55 1012.23 1013.06 1013.87 1014.71 1015.48 1016.54 1017.41 1017.78 1018.09 1018.21 1018.38 1018.52 1018.70 1019.08 1019.33 1019.52 1019.80 1019.76 1019.65 1019.77 1019.65 1019.64 1019.55 1019.63 1019.92
1008.79 1009.20 1009.30 1009.38 1010.04 1010.43 1010.12 1010.61 1010.53 1010.36 1009.94 1009.34 1008.49 1008.54 1008.63 1009.70 1010.79 1011.66 1012.42 1013.14 1014.05 1014.83 1015.49 1016.21 1016.96 1017.50 1018.01 1018.44 1018.75 1018.79 1018.72 1018.71 1019.03 1019.51 1019.81 1019.97 1020.10 1020.21 1020.16 1020.26 1020.23 1020.20 1020.35 1020.40
1009.42 1009.96 1010.27 1010.49 1010.65 1010.76 1010.78 1010.52 1010.25 1010.34 1010.11 1009.71 1008.99 1008.80 1010.05 1010.10 1010.57 1011.89 1012.91 1013.74 1014.51 1015.29 1016.02 1016.64 1017.10 1017.35 1018.01 1018.50 1018.78 1018.95 1018.94 1018.83 1018.89 1019.13 1019.49 1019.79 1020.06 1020.34 1020.58 1020.72 1020.84 1021.10 1021.10 1020.97
1009.75 1010.22 1010.81 1011.11 1010.65 1010.63 1010.52 1010.33 1010.37 1011.10 1010.47 1010.63 1010.22 1009.84 1010.49 1011.19 1011.51 1012.05 1013.28 1014.22 1015.09 1015.77 1016.25 1016.60 1016.91 1017.32 1017.81 1018.36 1018.74 1018.88 1019.11 1019.21 1019.16 1019.31 1019.51 1019.87 1020.29 1020.59 1021.00 1021.25 1021.56 1021.66 1021.47 1021.19
1009.63 1010.82 1011.10 1011.48 1011.50 1011.37 1011.11 1011.38 1011.92 1012.30 1012.57 1012.26 1011.12 1010.37 1011.34 1012.04 1012.78 1013.13 1013.85 1014.69 1015.47 1016.08 1016.64 1017.01 1017.38 1017.76 1018.08 1018.40 1018.69 1018.95 1019.28 1019.49 1019.54 1019.70 1019.99 1020.27 1020.62 1020.97 1021.30 1021.62 1021.77 1021.81 1021.65 1021.34
1010.36 1011.18 1012.00 1012.22 1012.15 1012.08 1011.78 1012.12 1013.07 1013.39 1014.19 1013.83 1012.11 1011.84 1012.38 1012.90 1013.41 1013.81 1014.35 1014.79 1015.28 1015.83 1016.33 1016.79 1017.32 1017.67 1018.10 1018.57 1018.91 1019.29 1019.56 1019.70 1019.81 1020.05 1020.26 1020.54 1020.82 1021.08 1021.40 1021.66 1021.78 1021.62 1021.57 1021.35
1011.79 1011.83 1012.41 1012.53 1012.57 1012.53 1012.37 1013.06 1013.21 1013.98 1014.69 1014.51 1013.07 1012.54 1012.99 1013.34 1013.73 1014.23 1014.53 1014.92 1015.37 1015.82 1016.33 1016.88 1017.33 1017.93 1018.38 1018.73 1019.08 1019.39 1019.66 1019.82 1020.04 1020.23 1020.57 1020.76 1020.92 1021.01 1021.20 1021.42 1021.48 1021.76 1021.80 1021.60
1012.81 1012.65 1013.14 1012.93 1012.78 1012.75 1012.82 1012.92 1013.96 1014.68 1015.50 1015.74 1015.06 1013.95 1013.74 1013.73 1013.88 1014.52 1014.99 1015.19 1015.66 1016.28 1016.81 1017.31 1017.87 1018.56 1019.02 1019.37 1019.47 1019.67 1019.70 1019.88 1020.27 1020.50 1020.71 1020.89 1021.01 1020.99 1020.97 1021.34 1021.57 1021.68 1021.63 1021.44
1014.21 1013.95 1013.72 1013.31 1013.87 1013.84 1013.81 1013.96 1014.59 1015.59 1016.28 1016.34 1015.99 1014.88 1014.14 1014.26 1014.52 1015.03 1015.44 1015.89 1016.60 1017.14 1017.70 1018.21 1018.78 1019.14 1019.41 1019.44 1019.56 1019.62 1019.80 1020.12 1020.48 1020.67 1020.87 1020.91 1020.82 1020.83 1020.95 1021.30 1021.57 1021.60 1021.42 1021.04
1015.08 1014.70 1014.37 1014.11 1014.65 1014.31 1014.15 1014.39 1015.15 1016.09 1017.10 1017.15 1016.69 1015.44 1014.37 1014.53 1015.98 1015.96 1016.43 1016.75 1017.42 1017.99 1018.33 1018.69 1019.18 1019.46 1019.67 1019.60 1019.65 1019.71 1019.88 1020.21 1020.49 1020.69 1020.70 1020.70 1020.62 1020.68 1020.86 1021.09 1021.31 1021.44 1021.33 1020.97
1016.06 1015.35 1015.38 1015.31 1014.93 1014.91 1014.74 1014.76 1015.00 1015.45 1016.15 1016.43 1016.31 1015.56 1015.06 1014.97 1015.63 1016.50 1016.82 1017.39 1017.96 1018.29 1018.85 1019.33 1019.74 1019.97 1020.02 1019.96 1019.80 1019.84 1020.07 1020.16 1020.32 1020.21 1020.30 1020.42 1020.29 1020.24 1020.42 1020.63 1020.88 1021.11 1021.09 1020.86
1016.24 1016.40 1016.44 1016.42 1016.17 1015.81 1015.46 1015.15 1015.05 1015.17 1015.40 1015.58 1015.51 1015.14 1015.11 1015.75 1016.38 1016.97 1017.61 1018.17 1018.47 1018.78 1019.36 1020.09 1020.41 1020.38 1020.13 1019.91 1019.78 1019.85 1019.80 1019.70 1019.79 1019.77 1019.65 1019.62 1019.58 1019.76 1020.08 1020.41 1020.55 1020.73 1020.74 1020.57
1016.97 1017.67 1018.08 1017.72 1016.91 1016.78 1016.19 1015.61 1015.28 1015.03 1014.91 1015.02 1015.40 1015.53 1015.58 1016.79 1017.57 1018.31 1018.95 1019.20 1019.18 1019.71 1020.39 1020.82 1020.61 1020.25 1020.02 1019.89 1019.77 1019.62 1019.44 1019.13 1019.14 1019.72 1019.36 1019.19 1018.96 1019.44 1019.79 1019.87 1020.16 1020.34 1020.31 1020.27
1017.70 1018.51 1019.15 1019.17 1018.72 1017.87 1016.78 1015.89 1015.34 1015.30 1015.44 1015.72 1015.83 1016.26 1016.92 1017.87 1018.35 1018.86 1019.30 1019.63 1020.29 1020.81 1020.99 1020.84 1020.55 1020.21 1020.02 1019.94 1019.80 1019.53 1019.13 1018.82 1018.92 1018.86 1018.63 1018.35 1019.11 1019.01 1019.17 1019.12 1019.39 1019.86 1019.97 1020.03
1018.68 1019.52 1020.53 1020.71 1020.06 1018.67 1016.54 1015.97 1015.51 1015.76 1015.72 1016.02 1016.22 1016.83 1017.98 1018.87 1019.28 1019.49 1020.26 1020.95 1021.26 1021.35 1021.28 1021.02 1020.49 1020.16 1019.95 1019.84 1019.61 1019.37 1019.15 1019.00 1018.74 1018.39 1017.85 1017.79 1018.12 1018.34 1018.44 1018.79 1018.99 1019.44 1019.61 1019.76
1018.84 1020.26 1021.50 1021.82 1020.82 1018.96 1017.05 1016.48 1016.66 1016.75 1016.97 1016.97 1017.31 1018.13 1018.98 1019.53 1020.18 1020.27 1021.09 1021.42 1021.47 1021.27 1020.84 1020.38 1020.11 1019.87 1019.67 1019.55 1019.57 1019.63 1019.48 1019.31 1018.83 1018.38 1018.58 1018.68 1018.49 1018.42 1018.69 1018.86 1019.49 1019.31 1019.32 1019.37
1019.95 1020.56 1021.55 1022.25 1021.53 1019.63 1017.33 1016.71 1017.14 1017.42 1017.61 1018.13 1018.94 1019.47 1020.27 1020.77 1020.86 1021.10 1021.46 1021.49 1021.11 1020.75 1020.39 1020.12 1019.82 1019.66 1019.58 1019.72 1019.87 1019.82 1019.78 1019.64 1019.27 1018.94 1019.35 1019.07 1019.18 1019.05 1019.24 1019.59 1019.88 1019.24 1019.10 1019.26
1020.94 1021.30 1021.67 1021.67 1021.22 1019.36 1017.58 1017.23 1017.58 1018.19 1019.33 1019.39 1019.89 1020.43 1021.01 1021.44 1021.72 1021.68 1021.45 1020.98 1020.84 1020.59 1020.25 1020.01 1019.80 1019.76 1019.78 1019.86 1019.93 1019.99 1019.84 1019.62 1019.51 1019.59 1019.52 1019.51 1019.61 1019.83 1019.64 1019.72 1019.20 1018.96 1019.15 1019.47
1019.49 1020.43 1020.88 1020.82 1020.30 1018.75 1017.49 1017.43 1018.32 1018.70 1019.11 1019.87 1020.54 1021.19 1021.46 1021.57 1021.34 1021.09 1020.89 1020.88 1020.71 1020.42 1020.19 1020.06 1020.01 1020.00 1020.00 1020.03 1019.99 1019.79 1019.72 1019.85 1019.97 1019.96 1019.82 1019.78 1019.98 1019.78 1019.11 1019.04 1019.07 1018.97 1019.15 1019.69
1017.56 1017.88 1018.32 1018.73 1018.01 1017.38 1017.06 1017.60 1018.39 1018.98 1019.65 1020.50 1021.03 1021.57 1021.59 1021.39 1021.13 1021.00 1021.02 1020.77 1020.59 1020.47 1020.33 1020.35 1020.34 1020.32 1020.23 1019.94 1019.75 1019.80 1020.02 1020.20 1020.30 1020.32 1020.21 1019.98 1019.78 1019.35 1019.20 1019.23 1019.06 1019.10 1019.47 1019.99
1016.47 1016.45 1016.68 1017.14 1016.94 1016.79 1017.06 1017.68 1018.67 1019.51 1020.19 1020.69 1021.11 1021.23 1021.24 1020.98 1021.12 1021.09 1020.87 1020.68 1020.62 1020.61 1020.62 1020.61 1020.59 1020.32 1019.98 1019.83 1019.89 1020.18 1020.40 1020.49 1020.57 1020.59 1020.42 1020.08 1019.74 1019.40 1019.14 1019.12 1019.25 1019.67 1019.96 1020.34
1016.58 1016.31 1016.20 1016.30 1016.32 1016.52 1017.20 1018.32 1019.24 1019.80 1020.40 1021.01 1021.20 1020.63 1020.97 1021.16 1021.04 1020.92 1020.90 1020.80 1020.76 1020.80 1020.68 1020.70 1020.38 1020.24 1020.23 1020.18 1020.29 1020.61 1020.77 1020.90 1020.95 1021.03 1020.92 1020.52 1020.25 1019.94 1019.84 1019.78 1020.08 1020.25 1020.53 1020.79
1016.34 1016.02 1016.27 1016.13 1016.51 1017.08 1018.09 1019.10 1019.60 1019.91 1020.64 1020.83 1020.72 1020.78 1020.99 1021.06 1021.05 1021.01 1021.10 1021.15 1021.06 1020.91 1020.84 1020.67 1020.54 1020.49 1020.48 1020.59 1020.69 1020.74 1020.88 1021.16 1021.45 1021.63 1021.37 1021.08 1020.79 1020.56 1020.39 1020.33 1020.34 1020.49 1020.71 1020.86
Thickness
5716 5703 5697 5701 5707 5709 5709 5711 5711 5715 5713 5704 5705 5713 5721 5719 5717 5716 5717 5716 5711 5691 5690 5685 5682 5676 5668 5665 5657 5653 5643 5635 5631 5624 5615 5610 5604 5600 5595 5590 5582 5577 5570 5566
5705 5694 5702 5710 5710 5704 5705 5701 5702 5710 5708 5698 5705 5705 5708 5708 5704 5710 5707 5704 5694 5683 5676 5670 5664 5659 5652 5646 5644 5638 5631 5624 5617 5612 5606 5601 5595 5590 5586 5581 5573 5567 5560 5552
5686 5692 5704 5702 5701 5694 5703 5692 5686 5683 5697 5705 5698 5693 5692 5694 5697 5699 5697 5694 5685 5674 5665 5659 5652 5642 5637 5634 5630 5624 5618 5612 5606 5600 5597 5592 5587 5583 5576 5570 5565 5557 5548 5539
5693 5697 5695 5694 5690 5687 5678 5690 5684 5682 5681 5675 5704 5672 5684 5681 5678 5680 5679 5675 5669 5663 5659 5652 5642 5631 5626 5621 5618 5613 5608 5603 5598 5590 5580 5573 5568 5562 5556 5552 5545 5540 5532 5523
5682 5685 5687 5684 5679 5683 5679 5684 5680 5681 5678 5682 5692 5681 5683 5683 5663 5662 5666 5663 5656 5650 5644 5635 5628 5622 5618 5613 5606 5602 5598 5592 5585 5577 5569 5563 5556 5549 5543 5535 5529 5522 5514 5505
5685 5695 5686 5680 5683 5683 5685 5682 5685 5683 5679 5657 5685 5685 5656 5667 5666 5655 5656 5654 5648 5640 5633 5626 5621 5615 5609 5605 5599 5591 5586 5582 5575 5568 5563 5556 5547 5539 5529 5521 5513 5503 5493 5486
5678 5677 5682 5681 5673 5682 5681 5673 5650 5634 5649 5644 5676 5672 5656 5668 5668 5660 5646 5641 5637 5630 5623 5618 5613 5608 5600 5595 5590 5585 5578 5571 5566 5558 5550 5540 5532 5522 5511 5500 5488 5479 5471 5464
5664 5644 5668 5674 5664 5658 5665 5661 5634 5619 5620 5636 5672 5659 5644 5663 5659 5653 5644 5634 5626 5620 5615 5607 5602 5597 5592 5585 5577 5572 5566 5557 5551 5544 5535 5526 5515 5503 5492 5479 5468 5458 5451 5443
5662 5652 5666 5665 5667 5665 5656 5644 5654 5634 5620 5617 5655 5657 5651 5648 5642 5639 5633 5628 5620 5613 5607 5600 5596 5590 5583 5575 5568 5560 5552 5546 5538 5529 5520 5509 5499 5488 5477 5465 5453 5444 5434 5423
5660 5646 5659 5661 5664 5664 5657 5657 5634 5631 5603 5606 5640 5644 5621 5627 5624 5621 5620 5615 5612 5608 5600 5593 5587 5579 5571 5565 5558 5550 5542 5534 5524 5514 5502 5492 5480 5469 5458 5446 5434 5421 5410 5401
5658 5654 5645 5656 5649 5645 5648 5644 5638 5633 5619 5598 5597 5620 5633 5629 5625 5614 5610 5608 5601 5597 5590 5582 5575 5566 5558 5550 5543 5535 5528 5519 5507 5496 5485 5471 5458 5448 5437 5425 5410 5399 5389 5378
5647 5645 5629 5644 5648 5651 5646 5637 5631 5603 5602 5601 5593 5601 5633 5625 5619 5610 5600 5596 5587 5584 5574 5568 5560 5552 5544 5537 5531 5523 5515 5504 5491 5476 5463 5451 5440 5428 5416 5402 5388 5376 5367 5357
5643 5638 5623 5631 5634 5642 5635 5636 5627 5614 5594 5582 5570 5586 5623 5613 5593 5594 5586 5583 5572 5568 5563 5558 5551 5543 5535 5528 5520 5510 5498 5485 5472 5459 5446 5434 5422 5410 5396 5381 5369 5356 5346 5336
5636 5641 5628 5613 5625 5631 5621 5626 5626 5615 5583 5582 5584 5589 5602 5606 5592 5584 5582 5576 5569 5562 5554 5545 5536 5527 5520 5512 5504 5494 5480 5467 5453 5442 5430 5416 5404 5394 5380 5365 5351 5337 5325 5316
5638 5622 5626 5625 5626 5624 5620 5618 5617 5608 5604 5583 5591 5594 5596 5590 5586 5579 5574 5566 5560 5553 5542 5529 5519 5512 5506 5499 5489 5476 5464 5452 5437 5425 5414 5404 5391 5378 5364 5346 5333 5320 5311 5303
5630 5610 5606 5605 5623 5615 5606 5610 5609 5608 5605 5601 5592 5586 5595 5579 5572 5561 5554 5551 5549 5538 5525 5512 5508 5502 5494 5483 5472 5460 5446 5433 5421 5404 5395 5384 5375 5360 5346 5331 5319 5309 5300 5291
5615 5605 5595 5591 5593 5591 5585 5600 5605 5600 5596 5586 5570 5577 5574 5563 5560 5551 5546 5542 5528 5515 5506 5499 5494 5487 5477 5466 5454 5443 5434 5422 5409 5396 5386 5372 5356 5344 5335 5323 5312 5298 5287 5279
5596 5592 5575 5573 5570 5571 5605 5611 5606 5593 5591 5587 5582 5572 5559 5550 5547 5541 5528 5516 5506 5498 5491 5485 5481 5474 5463 5451 5442 5432 5421 5408 5393 5382 5374 5362 5344 5331 5324 5310 5300 5289 5278 5271
5606 5582 5562 5560 5569 5583 5594 5595 5584 5574 5570 5576 5569 5559 5549 5542 5533 5527 5513 5503 5495 5489 5485 5479 5469 5460 5450 5439 5424 5409 5400 5388 5378 5367 5354 5341 5335 5325 5310 5300 5285 5279 5275 5267
5588 5581 5569 5548 5547 5553 5582 5587 5582 5574 5554 5562 5553 5543 5532 5524 5513 5511 5502 5494 5489 5484 5475 5466 5456 5444 5431 5417 5404 5392 5381 5369 5359 5343 5331 5322 5310 5301 5290 5280 5272 5274 5269 5262
5552 5556 5551 5547 5542 5556 5579 5579 5572 5545 5541 5541 5537 5528 5516 5506 5499 5493 5488 5485 5477 5467 5459 5449 5439 5426 5413 5400 5387 5375 5364 5352 5340 5325 5313 5302 5290 5280 5275 5270 5272 5270 5263 5254
5557 5549 5539 5544 5538 5541 5573 5566 5545 5550 5543 5531 5521 5510 5502 5495 5492 5487 5480 5470 5462 5454 5444 5434 5421 5409 5397 5384 5370 5361 5348 5334 5319 5307 5296 5285 5273 5271 5273 5271 5268 5265 5258 5247
5574 5575 5566 5558 5556 5569 5568 5552 5545 5539 5528 5514 5507 5496 5490 5486 5481 5474 5465 5457 5449 5439 5429 5417 5404 5391 5380 5369 5357 5342 5326 5313 5302 5291 5282 5276 5272 5272 5270 5266 5264 5258 5249 5237
5585 5590 5568 5560 5568 5565 5560 5551 5536 5523 5513 5505 5495 5488 5482 5477 5467 5459 5452 5444 5435 5423 5410 5399 5387 5377 5367 5353 5339 5322 5308 5299 5288 5280 5275 5272 5271 5270 5267 5264 5258 5249 5239 5229
5574 5574 5569 5560 5564 5557 5550 5533 5519 5511 5501 5489 5484 5484 5473 5463 5456 5448 5438 5428 5417 5406 5396 5384 5374 5362 5348 5334 5320 5306 5294 5285 5278 5271 5267 5265 5263 5261 5258 5255 5247 5239 5230 5221
5569 5562 5547 5543 5550 5542 5530 5514 5506 5496 5484 5481 5477 5468 5459 5451 5441 5433 5421 5410 5399 5388 5378 5368 5357 5343 5331 5317 5304 5293 5284 5275 5266 5260 5258 5256 5255 5252 5250 5247 5241 5233 5224 5216